Location: Newark
(34.6283°N, 36.0776°E)
Time: 03:11:25
(UTC+00:00)

Courier 1B Rocket - Pass Details

Date: 17 September 2019
Orbit: 920 x 1202 km, 28.2° (Epoch: 21 October)

Event Time Altitude Azimuth Distance (km) Brightness Sun altitude
Rises 17:57:37 0° 267° (W) 3,707 9.0 -28.1°
Reaches altitude 10° 18:00:33 10° 259° (W) 2,716 8.0 -28.7°
Enters shadow 18:05:53 35° 206° (SSW) 1,469 5.8 -29.7°
